STARLINK-36718

Last updated on Tue Mar 10 2026 00:02:05 GMT+0000 (Coordinated Universal Time)

1 67715U 26025Y 26068.58335648 -.01454636 00000+0 -10483-1 0 9992 2 67715 97.2846 180.3363 0001280 83.2403 328.8600 15.76346929 5845

Satellite not in orbit